Home   Weather   Rouen   Past weeks

Flag for France Past Weather in Rouen, Upper Normandy, France — Yesterday and Last 2 Weeks

Now
43 °F

Clear.


Feels Like: 36 °F
Forecast: 24 / 40 °F
Wind: 13 mph from East

Location: Rouen Airport

Current Time: Dec 3, 2016 at 2:55:09 pm

Latest Report: Dec 3, 2016 at 2:30 pm


Visibility: 6 mi

Pressure: 30.15 "Hg

Humidity: 61%

Dew Point: 30 °F

Location of RouenLocation

Past Weather in Rouen — Graph

°F

Rouen Temperature Yesterday

Maximum temperature yesterday: 45 °F (at 1:30 pm)
Minimum temperature yesterday: 32 °F (at 2:30 am)
Average temperature yesterday: 39 °F

High & Low Weather Summary for the Past Weeks

 TemperatureHumidityPressure
High55 °F (Nov 20, 1:00 pm)100% (Nov 20, 6:30 pm)30.57 "Hg (Nov 20, 6:30 pm)
Low23 °F (Dec 1, 6:00 am)39% (Nov 28, 1:30 pm)29.09 "Hg (Nov 20, 4:30 am)
Average42 °F81%29.99 "Hg
* Reported Nov 18 1:00 pm — Dec 3 1:30 pm, Rouen, Weather by CustomWeather, © 2016

Note: Actual official high and low records may vary slightly from our data, if they occured in-between our weather recording intervals... More about our weather records

Advertising

Rouen Weather History for the Previous 24 Hours

Scroll right to see more
 ConditionsComfort  
Time TempWeatherWind HumidityBarometerVisibility
1:30 pm
Sat, Dec 3
43 °FClear.15 mph61%30.15 "Hg5 mi
1:00 pm43 °FPassing clouds.14 mph66%30.18 "Hg5 mi
12:30 pm43 °FPassing clouds.15 mph66%30.18 "Hg5 mi
12:00 pm41 °FPassing clouds.13 mph76%30.18 "Hg5 mi
11:30 am41 °FPartly sunny.10 mph81%30.18 "Hg4 mi
11:00 am39 °FFog.14 mph87%30.21 "Hg3 mi
10:30 am39 °FFog.10 mph87%30.21 "Hg3 mi
10:00 am37 °FFog.12 mph93%30.18 "Hg3 mi
9:30 am37 °FFog.12 mph93%30.18 "Hg3 mi
9:00 am39 °FFog.9 mph87%30.18 "Hg3 mi
8:30 am39 °FFog.8 mph93%30.18 "Hg2 mi
8:00 am37 °FFog.8 mph100%30.18 "Hg3 mi
7:30 am37 °FFog.12 mph93%30.18 "Hg3 mi
7:00 am39 °FFog.13 mph87%30.18 "Hg3 mi
6:30 am39 °FFog.12 mph93%30.18 "Hg3 mi
6:00 am39 °FFog.10 mph93%30.18 "Hg3 mi
5:30 am39 °FFog.8 mph93%30.18 "Hg3 mi
5:00 am41 °FPassing clouds.9 mph87%30.18 "Hg4 mi
4:30 am41 °FLow clouds.9 mph93%30.18 "Hg4 mi
4:00 am43 °FLow clouds.9 mph87%30.18 "Hg4 mi
3:30 am43 °FLow clouds.10 mph93%30.18 "Hg4 mi
3:00 am43 °FLow clouds.8 mph93%30.18 "Hg4 mi
2:30 am43 °FLow clouds.7 mph93%30.18 "Hg4 mi
2:00 am43 °FLow clouds.7 mph93%30.18 "Hg4 mi
1:30 am43 °FMostly cloudy.5 mph93%30.18 "Hg4 mi
1:00 am43 °FOvercast.6 mph87%30.18 "Hg4 mi
12:30 am43 °FMostly cloudy.7 mph87%30.21 "Hg4 mi
12:00 am43 °FOvercast.6 mph87%30.21 "Hg4 mi
11:30 pm
Fri, Dec 2
43 °FOvercast.6 mph93%30.21 "Hg4 mi
11:00 pm43 °FOvercast.6 mph87%30.21 "Hg4 mi
10:30 pm43 °FFog.6 mph93%30.21 "Hg3 mi
10:00 pm43 °FFog.5 mph93%30.21 "Hg3 mi
9:30 pm43 °FOvercast.6 mph87%30.21 "Hg4 mi
9:00 pm43 °FLow clouds.6 mph93%30.21 "Hg4 mi
8:30 pm43 °FOvercast.7 mph87%30.21 "Hg6 mi
8:00 pm43 °FOvercast.6 mph87%30.21 "HgN/A
7:30 pm43 °FOvercast.6 mph81%30.21 "HgN/A
7:00 pm43 °FOvercast.5 mph87%30.21 "Hg6 mi
6:00 pm43 °FOvercast.5 mph87%30.21 "Hg4 mi
5:30 pm43 °FOvercast.3 mph87%30.24 "Hg4 mi
5:00 pm43 °FOvercast.5 mph87%30.24 "Hg6 mi
4:30 pm45 °FOvercast.5 mph81%30.24 "Hg6 mi
4:00 pm45 °FOvercast.3 mph81%30.24 "HgN/A
3:30 pm45 °FOvercast.3 mph81%30.24 "HgN/A
3:00 pm45 °FOvercast.5 mph81%30.24 "Hg6 mi
2:30 pm45 °FOvercast.5 mph81%30.24 "Hg6 mi
2:00 pm45 °FOvercast.5 mph81%30.24 "Hg4 mi
Weather by CustomWeather, © 2016

See weather overviewHow to use our weather pages